Date String (YYYY-MM-DD hh:mm:ss) UTC,Instrument flags,Ambient pressure (hPa),Sample flow (lpm),Bypass flow (lpm),Sample temperature (°C),Ambient temperature (°C),ASC tube jacket temperature (°C),LED temperature (°C),Box temperature (°C),Sample RH (%),Span deviation,Mass concentration (μg/m³),Mass concentration (μg/m³),Mass concentration (μg/m³)
DateTimeUTC,F1_M11,P_M11,Q1_M11,Q2_M11,T1_M11,T2_M11,T3_M11,T4_M11,T5_M11,U1_M11,ZSPAN_M11,X0_M11,X2_M11,X1_M11
2022-12-27 08:00:00,,0821.5,5.01,0.00,21.7,20.5,00.0,30.6,23.5,14.4,0000.0,0000.79,0000.55,0000.43
2022-12-27 08:01:00,,0821.4,4.96,0.00,21.7,20.6,00.0,30.6,23.5,13.7,0000.0,0000.82,0000.58,0000.46
2022-12-27 08:02:00,,0821.6,4.98,0.00,21.7,20.6,00.0,30.6,23.5,13.5,0000.0,0000.83,0000.58,0000.47
2022-12-27 08:03:00,,0821.6,5.02,0.00,21.7,20.4,00.0,30.6,23.4,15.5,0000.0,0000.92,0000.66,0000.54
2022-12-27 08:04:00,,0821.5,5.02,0.00,21.7,20.3,00.0,30.6,23.4,16.0,0000.0,0001.25,0000.94,0000.81
2022-12-27 08:05:00,,0821.4,5.02,0.00,21.6,20.1,00.0,30.6,23.3,14.9,0000.0,0001.31,0001.01,0000.89
2022-12-27 08:06:00,,0821.4,4.97,0.00,21.6,20.2,00.0,30.6,23.3,14.3,0000.0,0001.36,0001.05,0000.92
2022-12-27 08:07:00,,0821.5,4.97,0.00,21.6,20.1,00.0,30.6,23.3,15.1,0000.0,0001.55,0001.15,0000.99
2022-12-27 08:08:00,,0821.3,5.02,0.00,21.6,20.0,00.0,30.6,23.3,16.0,0000.0,0001.98,0001.46,0001.30
2022-12-27 08:09:00,,0821.3,5.02,0.00,21.6,20.1,00.0,30.6,23.3,14.3,0000.0,0002.11,0001.51,0001.37
2022-12-27 08:10:00,,0821.5,5.01,0.00,21.6,20.1,00.0,30.5,23.3,14.6,0000.0,0002.07,0001.49,0001.38
2022-12-27 08:11:00,,0821.5,4.99,0.00,21.6,20.1,00.0,30.5,23.2,16.0,0000.0,0002.41,0001.73,0001.60
2022-12-27 08:12:00,,0821.4,4.98,0.00,21.5,20.0,00.0,30.5,23.2,16.8,0000.0,0002.98,0002.21,0002.04
2022-12-27 08:13:00,,0821.4,5.01,0.00,21.5,19.9,00.0,30.5,23.2,16.0,0000.0,0003.37,0002.53,0002.34
2022-12-27 08:14:00,,0821.3,5.01,0.00,21.5,19.8,00.0,30.5,23.1,15.9,0000.0,0003.45,0002.64,0002.47
2022-12-27 08:15:00,,0821.4,5.00,0.00,21.4,19.7,00.0,30.5,23.1,16.5,0000.0,0003.43,0002.64,0002.47
2022-12-27 08:16:00,,0821.4,4.98,0.00,21.4,19.6,00.0,30.5,23.1,16.9,0000.0,0004.06,0002.97,0002.78
2022-12-27 08:17:00,,0821.4,4.98,0.00,21.4,19.5,00.0,30.5,23.0,17.1,0000.0,0004.83,0003.32,0003.19
2022-12-27 08:18:00,,0821.4,5.01,0.00,21.3,19.5,00.0,30.4,23.0,17.1,0000.0,0005.27,0003.56,0003.42
2022-12-27 08:19:00,,0821.4,5.02,0.00,21.3,19.5,00.0,30.4,23.0,17.0,0000.0,0005.24,0003.61,0003.48
2022-12-27 08:20:00,,0821.4,5.02,0.00,21.3,19.5,00.0,30.4,22.9,16.5,0000.0,0006.61,0003.78,0003.64
2022-12-27 08:21:00,,0821.4,5.00,0.00,21.3,19.5,00.0,30.4,22.9,16.3,0000.0,0006.98,0003.92,0003.77
2022-12-27 08:22:00,,0821.5,4.98,0.00,21.3,19.5,00.0,30.4,22.9,16.1,0000.0,0006.93,0003.93,0003.79
2022-12-27 08:23:00,,0821.4,4.98,0.00,21.2,19.5,00.0,30.3,22.9,16.0,0000.0,0006.68,0003.81,0003.66
2022-12-27 08:24:00,,0821.4,5.02,0.00,21.2,19.7,00.0,30.3,23.0,16.7,0000.0,0006.91,0003.88,0003.71
2022-12-27 08:25:00,,0821.4,5.01,0.00,21.3,19.8,00.0,30.3,23.0,17.4,0000.0,0007.51,0004.19,0003.98
2022-12-27 08:26:00,,0821.4,5.02,0.00,21.3,19.9,00.0,30.3,23.1,17.4,0000.0,0007.82,0004.43,0004.21
2022-12-27 08:27:00,,0821.4,4.98,0.00,21.3,19.9,00.0,30.3,23.1,17.4,0000.0,0007.96,0004.61,0004.38
2022-12-27 08:28:00,,0821.4,4.98,0.00,21.3,20.0,00.0,30.3,23.1,17.3,0000.0,0007.96,0004.71,0004.48
2022-12-27 08:29:00,,0821.6,5.01,0.00,21.3,20.1,00.0,30.3,23.1,17.1,0000.0,0008.02,0004.77,0004.55
2022-12-27 08:30:00,,0821.5,5.03,0.00,21.3,20.2,00.0,30.3,23.2,16.9,0000.0,0008.16,0004.87,0004.64
2022-12-27 08:31:00,,0821.5,5.02,0.00,21.3,20.2,00.0,30.3,23.2,17.2,0000.0,0007.82,0005.04,0004.78
2022-12-27 08:32:00,,0821.6,4.99,0.00,21.4,20.2,00.0,30.3,23.2,17.4,0000.0,0008.14,0005.33,0005.06
2022-12-27 08:33:00,,0821.5,4.99,0.00,21.4,20.2,00.0,30.3,23.2,17.4,0000.0,0008.43,0005.58,0005.30
2022-12-27 08:34:00,,0821.7,4.99,0.00,21.4,20.3,00.0,30.3,23.2,17.2,0000.0,0008.65,0005.79,0005.52
2022-12-27 08:35:00,,0821.6,5.03,0.00,21.4,20.3,00.0,30.3,23.2,17.2,0000.0,0008.82,0005.97,0005.72
2022-12-27 08:36:00,,0821.5,5.02,0.00,21.4,20.3,00.0,30.3,23.3,17.2,0000.0,0008.82,0005.98,0005.76
2022-12-27 08:37:00,,0821.5,5.00,0.00,21.4,20.3,00.0,30.3,23.3,17.2,0000.0,0008.84,0006.00,0005.77
2022-12-27 08:38:00,,0821.5,4.98,0.00,21.5,20.4,00.0,30.3,23.3,17.2,0000.0,0008.88,0006.03,0005.81
2022-12-27 08:39:00,,0821.7,4.96,0.00,21.5,20.4,00.0,30.3,23.3,17.1,0000.0,0008.97,0006.09,0005.86
2022-12-27 08:40:00,,0821.7,5.02,0.00,21.5,20.2,00.0,30.3,23.3,17.1,0000.0,0009.04,0006.15,0005.91
2022-12-27 08:41:00,,0821.5,5.03,0.00,21.5,20.2,00.0,30.4,23.3,17.1,0000.0,0009.12,0006.21,0005.95
2022-12-27 08:42:00,,0821.6,5.00,0.00,21.5,20.2,00.0,30.4,23.3,17.2,0000.0,0009.15,0006.25,0005.99
2022-12-27 08:43:00,,0821.5,4.95,0.00,21.5,20.1,00.0,30.4,23.2,17.2,0000.0,0009.02,0006.20,0005.96
2022-12-27 08:44:00,,0821.5,4.98,0.00,21.4,20.0,00.0,30.4,23.1,17.3,0000.0,0009.18,0006.18,0005.92
2022-12-27 08:45:00,,0821.5,5.02,0.00,21.4,19.8,00.0,30.4,23.0,17.3,0000.0,0009.34,0006.21,0005.94
2022-12-27 08:46:00,,0821.4,5.00,0.00,21.3,19.6,00.0,30.3,22.9,17.3,0000.0,0009.38,0006.21,0005.92
2022-12-27 08:47:00,,0821.5,5.02,0.00,21.3,19.5,00.0,30.3,22.9,17.3,0000.0,0009.24,0006.10,0005.83
2022-12-27 08:48:00,,0821.5,4.99,0.00,21.3,19.4,00.0,30.3,22.8,17.4,0000.0,0009.02,0005.97,0005.70
2022-12-27 08:49:00,,0821.4,4.99,0.00,21.2,19.3,00.0,30.3,22.7,17.5,0000.0,0008.92,0005.86,0005.58
2022-12-27 08:50:00,,0821.5,4.98,0.00,21.1,19.2,00.0,30.2,22.7,17.3,0000.0,0008.67,0005.68,0005.43
2022-12-27 08:51:00,,0821.5,5.04,0.00,21.1,19.4,00.0,30.2,22.7,17.0,0000.0,0008.38,0005.45,0005.22
2022-12-27 08:52:00,,0821.6,5.03,0.00,21.1,19.5,00.0,30.2,22.7,16.8,0000.0,0008.13,0005.25,0005.02
2022-12-27 08:53:00,,0821.6,5.02,0.00,21.1,19.6,00.0,30.2,22.7,16.9,0000.0,0007.96,0005.09,0004.84
2022-12-27 08:54:00,,0821.6,4.97,0.00,21.1,19.6,00.0,30.2,22.7,17.1,0000.0,0008.12,0004.95,0004.68
2022-12-27 08:55:00,,0821.8,4.97,0.00,21.1,19.6,00.0,30.1,22.8,17.6,0000.0,0008.19,0004.90,0004.62
2022-12-27 08:56:00,,0821.6,5.00,0.00,21.1,19.8,00.0,30.1,22.8,17.7,0000.0,0008.05,0004.85,0004.56
2022-12-27 08:57:00,,0821.8,5.02,0.00,21.1,19.9,00.0,30.1,22.9,17.6,0000.0,0008.05,0004.84,0004.53
2022-12-27 08:58:00,,0821.7,5.03,0.00,21.1,20.0,00.0,30.1,22.9,17.6,0000.0,0008.27,0004.88,0004.55
2022-12-27 08:59:00,,0821.8,5.00,0.00,21.2,20.1,00.0,30.1,23.0,17.7,0000.0,0008.53,0004.96,0004.63
